EDT,Max TemperatureF,Mean TemperatureF,Min TemperatureF,Max Dew PointF,MeanDew PointF,Min DewpointF,Max Humidity, Mean Humidity, Min Humidity, Max Sea Level PressureIn, Mean Sea Level PressureIn, Min Sea Level PressureIn, Max VisibilityMiles, Mean VisibilityMiles, Min VisibilityMiles, Max Wind SpeedMPH, Mean Wind SpeedMPH, Max Gust SpeedMPH,PrecipitationIn, CloudCover, Events, WindDirDegrees
2013-8-1,81,72,63,65,62,56,93,69,45,29.94,29.90,29.86,10,8,2,16,9,21,0.03,5,Rain,282
2013-8-2,75,67,58,63,58,53,93,71,49,30.00,29.95,29.91,10,8,5,16,8,22,0.06,5,Rain,249
2013-8-3,80,70,60,64,60,50,93,67,41,30.01,29.97,29.93,10,8,3,16,7,21,0.35,5,Rain,289
2013-8-4,73,66,58,59,54,52,90,70,49,30.12,30.08,30.01,10,10,9,17,7,22,T,3,Rain,340
2013-8-5,74,65,55,56,53,48,93,70,46,30.14,30.09,30.02,10,10,7,8,2,12,0.00,6,,218
2013-8-6,81,71,60,58,56,53,84,63,42,30.03,30.00,29.96,10,9,6,13,6,18,0.00,4,,165
2013-8-7,78,72,65,69,65,58,90,79,68,30.01,29.95,29.90,10,7,1,16,7,21,0.41,7,Rain-Thunderstorm,175
2013-8-8,83,77,71,73,71,68,100,85,69,30.00,29.94,29.91,9,4,0,15,5,18,0.07,7,Fog-Rain-Thunderstorm,187
2013-8-9,80,71,62,69,63,52,97,73,48,30.03,29.95,29.90,10,6,2,13,6,16,0.03,6,Rain,327
2013-8-10,82,71,60,63,58,51,90,71,51,30.12,30.08,30.04,10,9,7,13,5,17,T,6,Rain,20
2013-8-11,82,72,62,62,58,54,78,65,51,30.14,30.09,30.04,10,10,8,13,5,16,T,4,Rain,62
2013-8-12,83,72,61,66,62,58,90,69,47,30.07,30.00,29.85,10,8,5,16,6,22,0.00,5,,206
2013-8-13,76,65,53,66,59,47,93,75,56,30.00,29.88,29.80,10,7,2,21,9,28,T,5,Rain,321
2013-8-14,70,61,51,54,49,46,89,69,48,30.18,30.10,30.01,10,10,10,16,7,20,T,5,,325
2013-8-15,73,61,49,52,49,46,93,67,41,30.22,30.17,30.13,10,9,5,9,3,,0.00,4,,307
2013-8-16,75,66,56,54,52,48,80,61,41,30.20,30.17,30.14,10,10,7,13,6,16,0.00,5,,53
2013-8-17,79,68,56,58,54,52,86,63,39,30.25,30.22,30.20,10,9,6,14,7,20,0.00,5,,83
2013-8-18,73,65,57,63,59,54,87,78,68,30.22,30.18,30.14,10,8,6,9,5,12,T,7,Rain,148
2013-8-19,81,71,61,63,61,54,93,68,42,30.16,30.12,30.08,10,6,1,9,3,13,0.00,5,,266
2013-8-20,85,73,60,62,59,56,90,65,40,30.19,30.15,30.11,8,6,3,10,3,14,0.00,2,,240
2013-8-21,86,75,63,65,62,59,87,65,43,30.20,30.14,30.06,8,6,3,10,4,16,0.00,4,,218
2013-8-22,84,74,64,70,66,62,93,79,65,30.11,30.05,29.99,9,5,2,13,7,17,0.21,6,Rain,252
2013-8-23,84,71,57,67,60,51,93,67,40,30.19,30.07,30.01,10,7,3,16,7,26,0.03,5,Rain,27
2013-8-24,81,68,55,57,51,48,86,60,33,30.32,30.27,30.19,10,10,10,10,5,20,0.00,0,,61
2013-8-25,84,70,56,61,57,55,93,67,40,30.35,30.30,30.23,10,9,7,13,6,17,0.00,2,,217
2013-8-26,86,75,63,67,61,56,78,61,44,30.24,30.14,30.02,10,10,7,17,8,22,T,3,,242
2013-8-27,80,76,71,72,69,66,87,81,74,30.07,29.99,29.92,9,5,1,15,7,17,0.57,7,Rain-Thunderstorm,256
2013-8-28,82,76,70,72,70,68,90,82,74,29.97,29.88,29.83,8,5,3,17,8,22,0.02,7,Rain,292
2013-8-29,86,77,68,68,67,64,97,74,51,30.09,30.02,29.96,9,5,2,12,6,15,0.00,5,,39
2013-8-30,87,76,64,68,66,63,93,72,51,30.02,29.93,29.83,7,6,3,14,6,20,0.00,2,,231
2013-8-31,85,78,70,70,68,67,90,75,59,29.84,29.81,29.75,10,6,3,17,8,23,0.01,5,Rain,275